KF5CFW Weather Reports


time (UTC)temp
F
wind
direction
speed
knots
gust
knots
rain 1hr
in
rain 24hr
in
rain mn
in
humidity
%
barometer
mb
20260509231557 88 226 0.0 0.9 0.00 0.00 0.00 46 1006.3
20260509230054 89 226 0.0 0.0 0.00 0.00 0.00 46 1006.4
20260509224548 90 226 0.0 0.0 0.00 0.00 0.00 43 1006.3
20260509223052 91 226 0.0 0.0 0.00 0.00 0.00 42 1006.4
20260509221540 93 150 0.0 0.9 0.00 0.00 0.00 41 1006.3
20260509220043 95 72 0.0 0.0 0.00 0.00 0.00 42 1006.4
20260509214537 94 72 0.0 0.0 0.00 0.00 0.00 42 1006.5
20260509213027 94 11 0.0 0.9 0.00 0.00 0.00 41 1006.7
20260509211525 95 350 0.0 0.9 0.00 0.00 0.00 43 1006.8
20260509210018 95 224 0.0 0.0 0.00 0.00 0.00 39 1007.0
20260509204524 94 136 0.0 0.9 0.00 0.00 0.00 37 1007.3
20260509203009 93 23 0.0 0.9 0.00 0.00 0.00 37 1007.6
20260509201504 94 15 0.0 0.9 0.00 0.00 0.00 36 1007.7
20260509200100 93 5 0.0 0.0 0.00 0.00 0.00 44 1007.8
20260509194558 93 21 0.0 1.7 0.00 0.00 0.00 42 1008.1
20260509193051 93 18 0.0 0.9 0.00 0.00 0.00 41 1008.1
20260509191552 91 17 0.0 0.9 0.00 0.00 0.00 45 1008.2
20260509190044 91 67 0.0 0.9 0.00 0.00 0.00 47 1008.4
20260509184539 90 356 0.0 1.7 0.00 0.00 0.00 46 1008.6
20260509183033 91 193 0.0 1.7 0.00 0.00 0.00 44 1008.6
20260509181528 90 231 0.0 1.7 0.00 0.00 0.00 46 1008.8
20260509180025 89 356 0.0 0.9 0.00 0.00 0.00 47 1008.9
20260509174520 88 5 0.0 1.7 0.00 0.00 0.00 46 1009.0
20260509173015 88 356 0.0 0.9 0.00 0.00 0.00 47 1009.1
20260509171513 87 359 0.0 0.9 0.00 0.00 0.00 49 1009.3
20260509170007 86 352 0.0 0.9 0.00 0.00 0.00 50 1009.5
20260509164502 85 4 0.0 0.9 0.00 0.00 0.00 50 1009.6
20260509163105 84 283 0.0 0.9 0.00 0.00 0.00 52 1009.6
20260509161554 82 360 0.0 0.9 0.00 0.00 0.00 54 1009.7
20260509160049 81 349 0.0 0.9 0.00 0.00 0.00 55 1009.6
20260509154557 80 249 0.0 0.9 0.00 0.00 0.00 55 1009.4
20260509153040 79 231 0.0 0.9 0.00 0.00 0.00 53 1009.5
20260509151535 78 232 0.0 0.9 0.00 0.00 0.00 52 1009.6
20260509150032 77 345 0.0 0.9 0.00 0.00 0.00 51 1009.7
20260509144527 76 356 0.0 0.9 0.00 0.00 0.00 48 1009.7
20260509143023 75 226 0.0 0.9 0.00 0.00 0.00 34 1009.8
20260509141518 74 352 0.0 0.9 0.00 0.00 0.00 14 1009.8
20260509140014 73 326 0.0 0.9 0.00 0.00 0.00 1 1009.7
20260509134511 71 321 0.0 0.9 0.00 0.00 0.00 1 1009.6
20260509133010 70 231 0.0 0.9 0.00 0.00 0.00 1 1009.6
20260509131510 70 348 0.0 0.9 0.00 0.00 0.00 1 1009.5
20260509130003 70 344 0.0 0.9 0.00 0.00 0.00 1 1009.5
20260509124609 69 342 0.0 0.0 0.00 0.00 0.00 1 1009.6
20260509123054 69 345 0.0 0.0 0.00 0.00 0.00 1 1009.4
20260509121616 69 342 0.0 0.0 0.00 0.00 0.00 1 1009.4
20260509120049 69 342 0.0 0.0 0.00 0.00 0.00 1 1009.2
20260509114546 69 342 0.0 0.0 0.00 0.00 0.00 1 1009.2
20260509113044 69 342 0.0 0.0 0.00 0.00 0.00 1 1008.9
20260509111536 69 342 0.0 0.0 0.00 0.00 0.00 1 1008.6
20260509110032 70 343 0.0 0.0 0.00 0.00 0.00 1 1008.4
20260509104527 70 342 0.0 0.0 0.00 0.00 0.00 1 1008.3
20260509103022 71 342 0.0 0.0 0.00 0.00 0.00 1 1008.4
20260509101523 72 343 0.0 0.0 0.00 0.00 0.00 1 1008.2
20260509100014 72 342 0.0 0.9 0.00 0.00 0.00 1 1008.5
20260509094510 72 352 0.0 0.9 0.00 0.00 0.00 1 1007.4
20260509093009 71 333 0.0 1.7 0.00 0.00 0.00 1 1006.1
20260509091505 71 204 0.0 1.7 0.00 0.00 0.00 1 1005.7
20260509090002 71 160 0.0 1.7 0.00 0.00 0.00 1 1006.1
20260509084602 71 139 0.0 1.7 0.00 0.00 0.00 1 1006.3
20260509083058 71 136 0.0 1.7 0.00 0.00 0.00 1 1006.2
20260509081547 71 148 0.0 2.6 0.00 0.00 0.00 1 1006.9
20260509080047 71 140 0.0 0.9 0.00 0.00 0.00 1 1008.1
20260509074539 71 318 0.0 0.9 0.00 0.00 0.00 1 1008.9
20260509073038 71 260 0.0 0.9 0.00 0.00 0.00 1 1009.5
20260509071531 71 259 0.0 0.0 0.00 0.00 0.00 1 1010.0
20260509070028 71 259 0.0 1.7 0.00 0.00 0.00 1 1010.6
20260509064521 71 5 0.0 0.0 0.00 0.00 0.00 1 1010.3
20260509063017 71 5 0.0 0.0 0.00 0.00 0.00 1 1010.1
20260509061519 71 5 0.0 0.0 0.00 0.00 0.00 1 1010.2
20260509060012 71 5 0.0 0.0 0.00 0.00 0.00 1 1010.5
20260509054503 71 5 0.0 0.0 0.00 0.00 0.00 1 1010.5
20260509053135 70 6 0.0 0.9 0.00 0.00 0.00 1 1010.4
20260509051555 70 98 0.0 0.0 0.00 0.00 0.00 1 1009.6
20260509050050 71 98 0.0 0.0 0.00 0.00 0.00 1 1009.6
20260509044548 71 98 0.0 0.0 0.00 0.00 0.00 1 1009.4
20260509043102 72 98 0.0 0.0 0.00 0.00 0.00 1 1009.4
20260509041556 72 99 0.0 0.0 0.00 0.00 0.00 1 1009.6
20260509040050 72 97 0.0 0.0 0.00 0.00 0.00 1 1009.9
20260509034559 72 98 0.0 0.0 0.00 0.00 0.00 1 1009.7
20260509033059 72 98 0.0 0.0 0.00 0.00 0.00 1 1009.0
20260509031605 73 98 0.0 0.9 0.00 0.00 0.00 3 1008.7
20260509030036 73 96 0.0 0.0 0.00 0.00 0.00 7 1008.6
20260509024530 73 148 0.0 0.0 0.00 0.00 0.00 8 1008.3
20260509023026 73 148 0.0 0.9 0.00 0.00 0.00 11 1008.0
20260509021522 73 148 0.0 0.9 0.00 0.00 0.00 12 1007.9
20260509020022 73 127 0.0 0.0 0.00 0.00 0.00 12 1008.1
20260509014513 73 127 0.0 0.0 0.00 0.00 0.00 12 1008.1
20260509013008 73 127 0.0 0.0 0.00 0.00 0.00 13 1008.0
20260509011504 73 127 0.0 0.0 0.00 0.00 0.00 16 1008.0
20260509010100 73 127 0.0 0.0 0.00 0.00 0.00 18 1007.6
20260509004600 73 127 0.0 0.9 0.00 0.00 0.00 22 1007.4
20260509003051 74 122 0.0 0.0 0.00 0.00 0.00 25 1007.3
20260509001546 74 124 0.0 0.9 0.00 0.00 0.00 29 1007.5
20260509000042 74 121 0.0 0.9 0.00 0.00 0.00 32 1007.4
20260508234538 74 72 0.0 0.0 0.00 0.00 0.00 34 1007.7
20260508233033 75 89 0.0 0.0 0.00 0.00 0.00 39 1007.7